[[{"header":{"parameterUnit":"m.s-1","parameterCategory":1,"la1":30.2991,"la2":30.254,"lo1":-89.0895,"lo2":-89.0444,"dy":0.0017,"dx":0.0017,"nx":28,"ny":28,"refTime":"2024-07-29T09:00:00:Z","depth":0,"parameterNumber":2,"parameterNumberName":"U-component_of_WINDS"},"data":[0,0,0,0,0,0,0,0,0,0,0,0,0,0,0,0,0,0,0,0,0,0,0,0,0,0,0,0,0,0,0,0,0,0,0,0,0,0,0,0,0,0,0,0,0,0,0,0,0,0,0,0,0,0,0,0,0,0,2.826,2.8262,0,2.8409,2.841,2.8412,2.8444,2.8443,2.8442,2.8441,2.86,2.8605,2.861,0,0,0,0,0,0,0,0,0,0,0,0,0,2.8011,2.8015,2.826,2.8262,2.8264,2.8408,2.841,2.8412,2.8445,2.8443,2.8442,2.8441,2.8598,2.8604,2.8611,0,0,0,0,0,0,0,0,0,0,0,0,0,2.8135,2.8017,2.826,2.8297,2.8302,2.8408,2.841,2.8413,2.8445,2.8443,2.8441,2.844,2.8596,2.8604,2.8612,2.8693,0,0,2.8636,2.8639,0,0,0,0,0,0,0,0,2.8128,2.8144,2.829,2.8295,2.83,2.8406,2.8381,2.8507,2.8445,2.8391,2.8441,2.8439,2.8537,2.855,2.8582,2.8701,2.8707,2.8636,2.8641,2.8645,2.8647,0,0,0,0,0,0,0,2.812,2.8138,2.8319,2.8292,2.8298,2.8309,2.8324,2.8405,2.8472,2.8395,2.8398,2.8415,2.854,2.8574,2.8586,2.871,2.8636,2.8643,2.8648,2.8651,2.8904,2.8906,0,0,0,0,0,0,2.8103,2.8131,2.8314,2.8323,2.8208,2.8314,2.8332,2.8374,2.8471,2.8484,2.8416,2.8416,2.8561,2.8576,2.8591,2.8693,2.8644,2.8652,2.8656,2.8902,2.8905,2.8907,0,0,0,0,0,0,2.8098,2.8119,2.8308,2.8228,2.8253,2.832,2.8367,2.8378,2.8412,2.8486,2.8499,2.8438,2.8561,2.858,2.8667,2.8699,2.8655,2.8663,2.89,2.8903,2.8906,2.8898,0,0,0,0,0,0,2.8091,2.8117,2.8147,2.8228,2.8257,2.838,2.8369,2.8382,2.8424,2.8425,2.851,2.8523,2.8561,2.8655,2.8675,2.8709,2.8669,2.8897,2.8901,2.8905,2.8896,2.89,2.8904,0,0,0,0,0,2.8082,2.8141,2.8149,2.8171,2.8295,2.8381,2.8398,2.8438,2.8427,2.8459,2.8507,2.852,2.8692,2.8664,2.8686,2.8724,2.8895,2.89,2.8904,2.8894,2.8899,2.8904,0,0,0,0,0,0,2.8064,2.8152,2.8162,2.8248,2.8307,2.8387,2.8428,2.8443,2.8508,2.8506,2.8556,2.8575,2.8659,2.87,2.8667,2.8808,2.8794,2.8803,2.8778,2.8784,2.8788,2.8777,2.8675,0,0,0,0,0,2.807,2.813,2.8205,2.8274,2.8303,2.836,2.8399,2.8425,2.8489,2.8514,2.8569,2.8632,2.87,2.8744,2.8812,2.8902,2.8922,2.8939,2.8943,2.8946,2.8954,2.9005,2.9014,2.8921,2.8921,2.8921,0,0,2.8084,2.8139,2.8174,2.8272,2.832,2.8384,2.8381,2.8448,2.8496,2.8525,2.861,2.8652,2.8726,2.8815,2.8857,2.8852,2.8984,2.8952,2.8954,2.896,2.9011,2.902,2.9027,2.8924,2.8924,2.8923,0,0,2.814,2.8188,2.8251,2.8299,2.8371,2.8409,2.8424,2.8502,2.853,2.8616,2.8639,2.8698,2.8815,2.8866,2.8908,2.8984,2.8999,2.9005,2.9028,2.9077,2.9085,2.9091,2.9119,2.9129,2.9012,2.9012,2.9012,0,2.8149,2.8243,2.8282,2.8348,2.8391,2.8417,2.8483,2.8528,2.862,2.865,2.8642,2.8789,2.8841,2.8942,2.8961,2.8993,2.9014,2.8996,2.908,2.9087,2.9094,2.9121,2.9132,2.9012,2.9012,2.9012,2.9012,0,2.825,2.8315,2.8357,2.8442,2.849,2.8556,2.8607,2.8651,2.8672,2.8711,2.8799,2.8862,2.8942,2.8968,2.8991,2.9074,2.9068,2.907,2.9056,2.9102,2.9129,2.914,2.9012,2.9012,2.9012,2.9012,0,0,2.83,2.8405,2.842,2.846,2.8541,2.8594,2.8661,2.8737,2.8774,2.8837,2.8896,2.8994,2.8995,2.9042,2.9071,2.9115,2.9172,2.9112,2.9114,2.9121,2.9268,2.9267,2.9278,2.9182,2.9185,2.9186,2.9262,0,2.8367,2.8486,2.8523,2.8623,2.8684,2.871,2.8769,2.8827,2.8866,2.8925,2.8969,2.9037,2.9034,2.9063,2.9107,2.9155,2.9202,2.9151,2.924,2.9242,2.922,2.9292,2.929,2.9359,2.9273,2.9274,2.9276,0,2.8462,2.8523,2.8628,2.8702,2.873,2.8781,2.8855,2.891,2.8977,2.9002,2.9054,2.908,2.9153,2.9135,2.9238,2.9201,2.924,2.927,2.9273,2.9284,2.9262,2.9305,2.9382,2.9392,2.9292,2.9291,2.929,0,2.8489,2.8598,2.8675,2.8708,2.8796,2.8832,2.8871,2.8936,2.8979,2.9044,2.9073,2.9146,2.9187,2.9244,2.9289,2.9271,2.9388,2.9373,2.9412,2.9411,2.9436,2.9434,2.9521,2.946,2.946,2.946,2.946,0,2.856,2.8624,2.8688,2.8736,2.8808,2.8851,2.8923,2.8963,2.9021,2.9078,2.9106,2.916,2.9216,2.9278,2.9314,2.9394,2.9412,2.9436,2.9445,2.9434,2.9431,2.946,2.9457,2.9463,2.9462,2.9462,2.9461,0,2.8603,2.8648,2.8734,2.881,2.883,2.8881,2.8947,2.8995,2.9034,2.9107,2.9126,2.9189,2.9263,2.9313,2.9409,2.9433,2.952,2.9528,2.9497,2.9502,2.9538,2.9534,2.9647,2.9665,2.9591,2.9592,2.9592,0,2.8645,2.8694,2.8775,2.8814,2.8852,2.8916,2.896,2.9004,2.905,2.9129,2.9168,2.9244,2.9306,2.9424,2.9479,2.9553,2.9563,2.9598,2.9575,2.9562,2.9565,2.9561,2.9567,2.9602,2.9602,2.9603,2.9603,0,2.8717,2.8737,2.8798,2.8867,2.8918,2.8975,2.9033,2.9064,2.9119,2.9169,2.9244,2.9292,2.9389,2.9464,2.9543,2.9585,2.9604,2.961,2.9623,2.9612,2.9592,2.9604,2.9507,2.9607,2.9607,2.9607,2.9606,2.9606,2.8761,2.8806,2.8869,2.8937,2.8984,2.9037,2.9086,2.9131,2.9193,2.9274,2.9297,2.9375,2.9442,2.9549,2.9593,2.9656,2.9653,2.9672,2.9677,2.9681,2.9681,2.9581,2.9671,2.9671,2.9671,2.9671,2.9671,0,2.8835,2.8876,2.8937,2.9016,2.9069,2.908,2.9144,2.9189,2.9256,2.9316,2.9376,2.9463,2.9536,2.9596,2.9672,2.9711,2.9722,2.973,2.9728,2.9738,2.9679,2.966,2.972,2.972,2.972,2.972,2.972,2.972,2.8879,2.8955,2.8983,2.9084,2.9126,2.9201,2.9237,2.9287,2.9334,2.9428,2.9488,2.9526,2.9587,2.9667,2.9735,2.9752,2.9779,2.9785,2.9803,2.9747,2.9742,2.9736,2.9719,2.979,2.979,2.9856,2.9857,2.9857]},{"header":{"parameterUnit":"m.s-1","parameterCategory":1,"la1":30.2991,"la2":30.254,"lo1":-89.0895,"lo2":-89.0444,"dy":0.0017,"dx":0.0017,"nx":28,"ny":28,"refTime":"2024-07-29T09:00:00:Z","depth":0,"parameterNumber":3,"parameterNumberName":"V-component_of_WINDS"},"data":[0,0,0,0,0,0,0,0,0,0,0,0,0,0,0,0,0,0,0,0,0,0,0,0,0,0,0,0,0,0,0,0,0,0,0,0,0,0,0,0,0,0,0,0,0,0,0,0,0,0,0,0,0,0,0,0,0,0,0.5883,0.5882,0,0.5812,0.5811,0.581,0.5767,0.5767,0.5767,0.5766,0.5691,0.5689,0.5687,0,0,0,0,0,0,0,0,0,0,0,0,0,0.598,0.5978,0.5883,0.5882,0.5882,0.5812,0.5811,0.581,0.5767,0.5767,0.5767,0.5766,0.5692,0.569,0.5687,0,0,0,0,0,0,0,0,0,0,0,0,0,0.5926,0.5978,0.5883,0.5852,0.5848,0.5812,0.5811,0.581,0.5767,0.5767,0.5767,0.5766,0.5692,0.569,0.5687,0.5676,0,0,0.5679,0.5677,0,0,0,0,0,0,0,0,0.5929,0.5922,0.5857,0.5854,0.585,0.5798,0.5817,0.5765,0.5767,0.5798,0.5766,0.5766,0.5727,0.5721,0.5708,0.5673,0.5669,0.5678,0.5677,0.5676,0.5675,0,0,0,0,0,0,0,0.5933,0.5925,0.5855,0.5856,0.5852,0.584,0.5832,0.5807,0.5765,0.5795,0.5792,0.5784,0.5725,0.5711,0.5706,0.5668,0.5679,0.5676,0.5674,0.5673,0.5618,0.5618,0,0,0,0,0,0,0.5942,0.5929,0.5857,0.5853,0.589,0.5839,0.583,0.5815,0.5765,0.5757,0.5784,0.5782,0.5716,0.571,0.5703,0.5686,0.5676,0.5673,0.5671,0.5618,0.5618,0.5618,0,0,0,0,0,0,0.5944,0.5936,0.586,0.589,0.5879,0.5837,0.5821,0.5814,0.58,0.5757,0.5749,0.5779,0.5715,0.5707,0.5683,0.5683,0.5672,0.5669,0.5618,0.5618,0.5618,0.5652,0,0,0,0,0,0,0.5947,0.5937,0.5933,0.589,0.5878,0.5842,0.5821,0.5813,0.5796,0.5792,0.5749,0.5742,0.5715,0.5687,0.568,0.5679,0.5667,0.5617,0.5618,0.5618,0.5651,0.5654,0.5656,0,0,0,0,0,0.5951,0.5946,0.5933,0.5925,0.5872,0.5842,0.5835,0.5804,0.5796,0.5791,0.5763,0.5743,0.5684,0.5685,0.5677,0.5675,0.5617,0.5618,0.5618,0.565,0.5653,0.5656,0,0,0,0,0,0,0.5989,0.5939,0.5925,0.5906,0.5879,0.5835,0.5828,0.5809,0.5783,0.5781,0.5743,0.5734,0.5713,0.5691,0.5693,0.5661,0.5648,0.5647,0.5675,0.5678,0.5681,0.5686,0.5665,0,0,0,0,0,0.5996,0.5976,0.5933,0.592,0.5907,0.587,0.5856,0.5835,0.5804,0.5792,0.5762,0.5733,0.5708,0.5692,0.5666,0.5648,0.5637,0.5642,0.5645,0.5647,0.5646,0.5633,0.5635,0.5619,0.5619,0.5619,0,0,0.6008,0.5979,0.5968,0.5927,0.5904,0.5883,0.5861,0.584,0.5824,0.5789,0.5764,0.5741,0.5706,0.5684,0.5673,0.5665,0.5648,0.5648,0.565,0.5647,0.5634,0.5635,0.5637,0.562,0.562,0.562,0,0,0.6021,0.5997,0.5983,0.596,0.5924,0.5899,0.5896,0.5855,0.5839,0.5813,0.5786,0.5766,0.5724,0.5699,0.5681,0.5684,0.5664,0.5676,0.5689,0.5677,0.5678,0.5679,0.5679,0.5679,0.5676,0.5676,0.5676,0,0.6041,0.601,0.5978,0.5959,0.5941,0.5909,0.5894,0.5872,0.583,0.5818,0.5811,0.5756,0.573,0.5701,0.5702,0.5689,0.5683,0.5681,0.5681,0.5681,0.5682,0.5681,0.5681,0.5677,0.5677,0.5677,0.5677,0,0.6035,0.6014,0.6007,0.5968,0.5949,0.5932,0.5897,0.5881,0.5862,0.5837,0.5811,0.5779,0.5745,0.5737,0.5718,0.5705,0.5702,0.5688,0.5675,0.5685,0.5684,0.5683,0.568,0.5679,0.5679,0.5678,0,0,0.607,0.6013,0.6011,0.5992,0.595,0.5933,0.5914,0.5882,0.5869,0.584,0.5823,0.5787,0.5774,0.5754,0.5731,0.5721,0.5723,0.5708,0.5706,0.5711,0.5706,0.5716,0.5716,0.571,0.571,0.5709,0.5708,0,0.6075,0.6041,0.6011,0.5987,0.5966,0.5935,0.5918,0.589,0.5866,0.5844,0.5818,0.5793,0.5778,0.5766,0.5754,0.5725,0.5721,0.5725,0.5691,0.5691,0.5701,0.5715,0.5726,0.5727,0.5708,0.5708,0.5708,0,0.6077,0.6051,0.6024,0.5984,0.5974,0.596,0.5927,0.5907,0.5874,0.5857,0.5835,0.5811,0.5788,0.5778,0.5745,0.5748,0.5732,0.5716,0.5715,0.571,0.5699,0.571,0.5726,0.5726,0.5707,0.5707,0.5707,0,0.6104,0.6061,0.604,0.6025,0.5977,0.5968,0.5947,0.5914,0.5896,0.5868,0.5856,0.5825,0.5808,0.5784,0.5752,0.5747,0.5722,0.5709,0.5706,0.5707,0.5702,0.5702,0.5715,0.5693,0.5693,0.5693,0.5693,0,0.6112,0.6097,0.6051,0.6038,0.6019,0.5985,0.5968,0.5944,0.5915,0.5895,0.5866,0.5849,0.5808,0.5785,0.576,0.5736,0.5728,0.5713,0.5707,0.5715,0.5717,0.5704,0.5703,0.5693,0.5693,0.5693,0.5693,0,0.6138,0.6107,0.6081,0.6039,0.6027,0.6016,0.5978,0.5963,0.5938,0.5914,0.5906,0.5866,0.5838,0.5804,0.5764,0.5747,0.5724,0.5715,0.5736,0.5732,0.5731,0.5731,0.5734,0.5733,0.5714,0.5714,0.5714,0,0.6145,0.6133,0.6089,0.6074,0.6055,0.6032,0.6014,0.598,0.5962,0.5923,0.5912,0.5881,0.5855,0.581,0.5777,0.5746,0.5735,0.5738,0.573,0.5739,0.5733,0.5734,0.5732,0.574,0.5741,0.5741,0.5741,0,0.6161,0.6146,0.6122,0.6092,0.6071,0.6045,0.6019,0.6008,0.5968,0.5949,0.592,0.5899,0.5858,0.5828,0.5792,0.577,0.5748,0.5744,0.5742,0.575,0.5762,0.5755,0.5741,0.5744,0.5744,0.5744,0.5743,0.5743,0.6177,0.6164,0.6131,0.6104,0.6081,0.6056,0.604,0.6013,0.5988,0.5953,0.5934,0.5905,0.587,0.5821,0.5799,0.5775,0.5767,0.5764,0.5763,0.5763,0.5765,0.5767,0.5768,0.5768,0.5768,0.5768,0.5768,0,0.619,0.6167,0.6143,0.6107,0.6086,0.6068,0.6038,0.602,0.5995,0.5966,0.5941,0.5906,0.5876,0.584,0.5808,0.5795,0.5784,0.5787,0.5787,0.5782,0.5774,0.5779,0.5797,0.5797,0.5797,0.5797,0.5797,0.5797,0.6194,0.6171,0.6152,0.6117,0.6094,0.6066,0.6049,0.6026,0.6002,0.5965,0.5941,0.5918,0.5885,0.585,0.5821,0.5811,0.58,0.5806,0.5793,0.5786,0.5783,0.5781,0.5785,0.5804,0.5804,0.5803,0.5803,0.5803]}]]